This is the latest recevied weather packets stored in our database for station/object WK7G. If no packets are shown the sender has not sent any weather packets the latest 10 day(s).
| Time | Temp. | Humidity | Pressure | Rain* | Wind** | Luminosity | Snow |
|---|---|---|---|---|---|---|---|
| 1777834965 | 17.78° C | 25% | 1009.1 hPa | 0 mm | - | 906 W/m² | - |
| 1777834663 | 18.33° C | 28% | 1008.5 hPa | 0 mm | - | 931 W/m² | - |
| 1777834358 | 18.89° C | 26% | 1008.7 hPa | 0 mm | - | 938 W/m² | - |
| 1777834053 | 18.89° C | 28% | 1008.9 hPa | 0 mm | - | 150 W/m² | - |
| 1777833750 | 18.33° C | 30% | 1008.9 hPa | 0 mm | - | 923 W/m² | - |
| 1777833446 | 18.33° C | 31% | 1009.2 hPa | 0 mm | - | 952 W/m² | - |
| 1777833143 | 17.78° C | 30% | 1009.2 hPa | 0 mm | - | 989 W/m² | - |
| 1777832841 | 18.33° C | 27% | 1009.1 hPa | 0 mm | - | 527 W/m² | - |
| 1777832540 | 17.78° C | 29% | 1009.2 hPa | 0 mm | - | 919 W/m² | - |
| 1777832236 | 16.67° C | 27% | 1009.2 hPa | 0 mm | - | 924 W/m² | - |
| 1777831933 | 17.22° C | 26% | 1009.2 hPa | 0 mm | - | 899 W/m² | - |
| 1777831629 | 17.22° C | 26% | 1009.3 hPa | 0 mm | - | 910 W/m² | - |
| 1777831328 | 17.78° C | 26% | 1009.2 hPa | 0 mm | - | 140 W/m² | - |
| 1777831024 | 17.78° C | 27% | 1009.3 hPa | 0 mm | - | 909 W/m² | - |
| 1777830722 | 18.33° C | 28% | 1009.3 hPa | 0 mm | - | 906 W/m² | - |
| 1777830417 | 17.78° C | 28% | 1009.7 hPa | 0 mm | - | 877 W/m² | - |
| 1777830115 | 17.78° C | 27% | 1009.7 hPa | 0 mm | - | 856 W/m² | - |
| 1777829810 | 18.33° C | 29% | 1009.5 hPa | 0 mm | - | 895 W/m² | - |
| 1777829507 | 17.22° C | 32% | 1009.7 hPa | 0 mm | - | 881 W/m² | - |
| 1777829204 | 17.78° C | 28% | 1009.7 hPa | 0 mm | - | 880 W/m² | - |
| 1777828901 | 17.22° C | 26% | 1009.8 hPa | 0 mm | - | 876 W/m² | - |
| 1777828597 | 16.67° C | 26% | 1009.7 hPa | 0 mm | - | 898 W/m² | - |
| 1777828295 | 17.22° C | 27% | 1009.8 hPa | 0 mm | - | 889 W/m² | - |
| 1777827992 | 17.22° C | 28% | 1009.8 hPa | 0 mm | - | 880 W/m² | - |
| 1777827688 | 17.78° C | 32% | 1009.5 hPa | 0 mm | - | 884 W/m² | - |
* Rain latest hour (hover to see other rain measurements)
** Current wind speed in m/s (hover to see current wind gust speed)